Location: Stara Lesna
(49.1528°N, 20.2911°E)
Time: 23:20:00
(UTC+02:00)

Cosmos 773 Rocket - Pass Details

Date: 21 September 2019
Orbit: 746 x 776 km, 74.1° (Epoch: 16 October)

Event Time Altitude Azimuth Distance (km) Brightness Sun altitude
Exits shadow 04:40:22 15° 197° (SSW) 1,969 5.8 -17.2°
Maximum altitude 04:44:44 81° 112° (ESE) 766 4.0 -16.5°
Drops below altitude 10° 04:49:53 10° 25° (NNE) 2,277 7.1 -15.7°
Sets 04:52:15 0° 25° (NNE) 3,203 7.9 -15.4°
